Weather in As-Suwayda

Syria     32°41′59″N   36°34′00″E
temp.,
°C
wind,
m/s
gust,
m/s
humid.,
%
clouds,
%
prec.,
mm/h
press.,
hPa
HPBL,
m
15 may, sat
sat1500:00+18ssw22410 0.0 1014107
03:00+16ssw33520 0.0 101453
06:00+15ssw33590 0.0 101450
09:00+22wsw33320 0.0 1013407
12:00+27wsw54220 0.0 1012880
15:00+28wsw76210 0.0 10101168
18:00+25wsw77280 0.0 1010728
21:00+20ssw34400 0.0 1012155
16 may, sun
sun1600:00+17sw34430 0.0 1012108
03:00+16sse44310 0.0 101136
06:00+15ssw333131 0.0 101122
09:00+21sw33220 0.0 1011398
12:00+27wsw55120 0.0 10101160
15:00+28w87140 0.0 10081610
18:00+25w8818100 0.0 10081206
21:00+21sw3530100 0.0 1010160
17 may, mon
mon1700:00+20s223121 0.0 101019
03:00+19sse2230100 0.0 100811
06:00+19sw223296 0.0 100911
09:00+24sw45239 0.0 1010693
12:00+27wsw882166 0.0 10101226
15:00+27w10112488 0.0 10091506
18:00+23w893236 0.0 1010889
21:00+19sw45421 0.0 1012277
18 may, tue
tue1800:00+16ssw34515 0.0 1013150
03:00+15sse12510 0.0 101316
06:00+14sw22530 0.0 101427
09:00+20w21320 0.0 1014494
12:00+27wsw32170 0.0 10131132
15:00+30w43130 0.0 10111549
18:00+28w65200 0.0 1011849
21:00+21wsw12520 0.0 101369
19 may, wed
wed1900:00+21sw11450 0.0 101312
03:00+19nnw11460 0.0 101211
06:00+18ne11450 0.0 101311
09:00+26w22220 0.0 1013609
12:00+31wsw55140 0.0 10121399
15:00+34w67120 0.0 10102146
18:00+30w65200 0.0 1010890
21:00+24nw01380 0.0 101113